TimeAKDT,TemperatureF,Dew PointF,Humidity,Sea Level PressureIn,VisibilityMPH,Wind Direction,Wind SpeedMPH,Gust SpeedMPH,PrecipitationIn,Events,Conditions,WindDirDegrees,DateUTC
12:16 AM,23.0,19.4,86,29.92,10.0,NNE,3.5,-,N/A,,Clear,20,2013-09-17 08:16:00
12:36 AM,24.8,19.4,80,29.92,10.0,Calm,Calm,-,N/A,,Clear,0,2013-09-17 08:36:00
12:56 AM,23.0,19.4,86,29.93,10.0,North,3.5,-,N/A,,Clear,350,2013-09-17 08:56:00
1:16 AM,23.0,21.2,93,29.92,10.0,North,4.6,-,N/A,,Clear,10,2013-09-17 09:16:00
1:36 AM,21.2,19.4,93,29.92,10.0,Calm,Calm,-,N/A,,Clear,0,2013-09-17 09:36:00
1:56 AM,23.0,17.6,80,29.92,10.0,Calm,Calm,-,N/A,,Clear,0,2013-09-17 09:56:00
2:16 AM,21.2,17.6,86,29.91,10.0,NNE,3.5,-,N/A,,Clear,20,2013-09-17 10:16:00
2:36 AM,21.2,19.4,93,29.91,10.0,ENE,5.8,-,N/A,,Clear,70,2013-09-17 10:36:00
2:56 AM,21.2,19.4,93,29.90,10.0,NE,5.8,-,N/A,,Clear,50,2013-09-17 10:56:00
3:16 AM,21.2,21.2,100,29.90,10.0,ENE,6.9,-,N/A,,Clear,60,2013-09-17 11:16:00
3:36 AM,21.2,21.2,100,29.89,10.0,ENE,6.9,-,N/A,,Clear,60,2013-09-17 11:36:00
3:56 AM,21.2,19.4,93,29.89,10.0,ENE,6.9,-,N/A,,Clear,60,2013-09-17 11:56:00
4:16 AM,19.4,19.4,100,29.89,10.0,NE,6.9,-,N/A,,Clear,40,2013-09-17 12:16:00
4:36 AM,19.4,17.6,93,29.89,10.0,NE,5.8,-,N/A,,Clear,40,2013-09-17 12:36:00
4:56 AM,19.4,15.8,86,29.89,10.0,NE,6.9,-,N/A,,Clear,40,2013-09-17 12:56:00
5:16 AM,19.4,17.6,93,29.88,10.0,NNE,6.9,-,N/A,,Clear,20,2013-09-17 13:16:00
5:36 AM,19.4,17.6,93,29.88,10.0,North,8.1,-,N/A,,Clear,360,2013-09-17 13:36:00
5:56 AM,19.4,17.6,93,29.87,10.0,NNE,6.9,-,N/A,,Clear,30,2013-09-17 13:56:00
6:16 AM,19.4,17.6,93,29.86,10.0,ENE,6.9,-,N/A,,Clear,60,2013-09-17 14:16:00
6:36 AM,19.4,19.4,100,29.86,10.0,East,8.1,-,N/A,,Clear,80,2013-09-17 14:36:00
6:56 AM,21.2,19.4,93,29.86,10.0,East,9.2,-,N/A,,Clear,80,2013-09-17 14:56:00
7:16 AM,19.4,17.6,93,29.85,10.0,ENE,8.1,-,N/A,,Clear,70,2013-09-17 15:16:00
7:36 AM,19.4,19.4,100,29.85,10.0,NE,9.2,-,N/A,,Clear,40,2013-09-17 15:36:00
7:56 AM,19.4,19.4,100,29.85,10.0,NE,8.1,-,N/A,,Clear,40,2013-09-17 15:56:00
2:36 PM,39.2,15.8,39,29.73,10.0,East,20.7,25.3,N/A,,Scattered Clouds,90,2013-09-17 22:36:00
3:36 PM,37.4,14.0,38,29.72,10.0,East,17.3,-,N/A,,Scattered Clouds,100,2013-09-17 23:36:00
3:56 PM,39.2,17.6,42,29.71,10.0,East,16.1,21.9,N/A,,Scattered Clouds,100,2013-09-17 23:56:00
4:16 PM,39.2,15.8,39,29.71,10.0,East,15.0,21.9,N/A,,Clear,100,2013-09-18 00:16:00
4:36 PM,39.2,17.6,42,29.70,10.0,ESE,16.1,21.9,N/A,,Mostly Cloudy,110,2013-09-18 00:36:00
4:56 PM,37.4,15.8,41,29.70,10.0,East,18.4,-,N/A,,Overcast,100,2013-09-18 00:56:00
5:16 PM,35.6,17.6,48,29.70,10.0,ESE,19.6,-,N/A,,Overcast,110,2013-09-18 01:16:00
5:36 PM,35.6,19.4,52,29.69,10.0,East,19.6,24.2,N/A,,Overcast,100,2013-09-18 01:36:00
5:56 PM,35.6,19.4,52,29.70,10.0,ESE,16.1,-,N/A,,Overcast,110,2013-09-18 01:56:00
6:16 PM,33.8,19.4,56,29.70,10.0,East,10.4,16.1,N/A,,Overcast,100,2013-09-18 02:16:00
6:36 PM,33.8,19.4,56,29.70,10.0,East,8.1,-,N/A,,Overcast,100,2013-09-18 02:36:00
6:56 PM,33.8,19.4,56,29.71,10.0,ESE,8.1,-,N/A,,Overcast,110,2013-09-18 02:56:00
7:16 PM,32.0,19.4,60,29.71,10.0,ENE,3.5,-,N/A,,Overcast,60,2013-09-18 03:16:00
7:36 PM,32.0,19.4,60,29.71,10.0,Calm,Calm,-,N/A,,Overcast,0,2013-09-18 03:36:00
7:56 PM,30.2,19.4,64,29.71,10.0,NE,6.9,-,N/A,,Overcast,50,2013-09-18 03:56:00
8:16 PM,30.2,19.4,64,29.72,10.0,East,6.9,-,N/A,,Overcast,80,2013-09-18 04:16:00
8:36 PM,30.2,19.4,64,29.72,10.0,ESE,8.1,-,N/A,,Overcast,110,2013-09-18 04:36:00
8:56 PM,30.2,19.4,64,29.72,10.0,ENE,8.1,-,N/A,,Overcast,70,2013-09-18 04:56:00
9:16 PM,30.2,19.4,64,29.71,10.0,ESE,8.1,-,N/A,,Overcast,110,2013-09-18 05:16:00
9:36 PM,30.2,17.6,60,29.72,10.0,ESE,4.6,-,N/A,,Overcast,110,2013-09-18 05:36:00
9:56 PM,30.2,17.6,60,29.72,10.0,SE,4.6,-,N/A,,Overcast,130,2013-09-18 05:56:00
10:16 PM,30.2,17.6,60,29.71,10.0,Calm,Calm,-,N/A,,Overcast,0,2013-09-18 06:16:00
10:36 PM,30.2,19.4,64,29.71,10.0,North,8.1,-,N/A,,Overcast,360,2013-09-18 06:36:00
10:56 PM,30.2,19.4,64,29.71,10.0,East,6.9,-,N/A,,Overcast,80,2013-09-18 06:56:00
11:16 PM,28.4,21.2,74,29.71,10.0,East,13.8,-,N/A,,Overcast,80,2013-09-18 07:16:00
11:36 PM,28.4,23.0,80,29.71,10.0,East,9.2,-,N/A,,Overcast,90,2013-09-18 07:36:00
11:56 PM,28.4,23.0,80,29.70,10.0,ENE,5.8,-,N/A,,Overcast,70,2013-09-18 07:56:00